This is the latest recevied weather packets stored in our database for station/object DH2PG-6. If no packets are shown the sender has not sent any weather packets the latest 10 day(s).
| Time | Temp. | Humidity | Pressure | Rain* | Wind** | Luminosity | Snow |
|---|---|---|---|---|---|---|---|
| 1788023864 | 17.78° C | 80% | 1009.7 hPa | 0 mm | - | - | - |
| 1788023564 | 17.78° C | 79% | 1009.8 hPa | 0 mm | - | - | - |
| 1788022963 | 17.78° C | 79% | 1009.9 hPa | 0 mm | - | - | - |
| 1788022663 | 18.33° C | 78% | 1009.9 hPa | 0 mm | - | - | - |
| 1788022363 | 18.33° C | 78% | 1009.8 hPa | 0 mm | - | - | - |
| 1788022062 | 18.33° C | 78% | 1009.7 hPa | 0 mm | - | - | - |
| 1788021762 | 18.33° C | 78% | 1009.9 hPa | 0 mm | - | - | - |
| 1788021173 | 18.89° C | 77% | 1009.6 hPa | 0 mm | - | - | - |
| 1788020861 | 18.89° C | 77% | 1009.6 hPa | 0 mm | - | - | - |
| 1788020561 | 18.89° C | 77% | 1009.8 hPa | 0 mm | - | - | - |
| 1788020261 | 18.89° C | 78% | 1009.7 hPa | 0 mm | - | - | - |
| 1788019960 | 18.89° C | 78% | 1009.9 hPa | 0 mm | - | - | - |
| 1788019660 | 18.89° C | 78% | 1009.9 hPa | 0 mm | - | - | - |
| 1788019367 | 18.89° C | 78% | 1010 hPa | 0 mm | - | - | - |
| 1788019060 | 18.89° C | 77% | 1010 hPa | 0 mm | - | - | - |
| 1788018759 | 19.44° C | 77% | 1010 hPa | 0 mm | - | - | - |
| 1788018459 | 19.44° C | 77% | 1010.1 hPa | 0 mm | - | - | - |
| 1788017858 | 20° C | 77% | 1010.2 hPa | 0 mm | - | - | - |
| 1788017558 | 20° C | 77% | 1010.3 hPa | 0 mm | - | - | - |
| 1788017258 | 20° C | 77% | 1010.3 hPa | 0 mm | - | - | - |
| 1788016958 | 20° C | 77% | 1010.3 hPa | 0 mm | - | - | - |
| 1788016657 | 20° C | 78% | 1010.4 hPa | 0 mm | - | - | - |
| 1788016357 | 20° C | 79% | 1010.3 hPa | 0 mm | - | - | - |
| 1788015756 | 19.44° C | 80% | 1010.5 hPa | 0 mm | - | - | - |
| 1788015456 | 18.89° C | 80% | 1010.4 hPa | 0 mm | - | - | - |
* Rain latest hour (hover to see other rain measurements)
** Current wind speed in m/s (hover to see current wind gust speed)